Temp
-12 -12 -11 -11 -12 -12 -12 -13 -12 -13 -13 -13 -13 -13 -13 -14 -14 -14 -13 -13 -13 -13 -13 -13 -13 -13 -13 -12 -12 -11 -11 -11 -11 -11 -11 -11 -11 -11 -12 -12 -13 -13 -12
-13 -12 -12 -12 -12 -12 -12 -13 -12 -13 -13 -13 -13 -13 -13 -13 -13 -13 -13 -13 -13 -13 -13 -13 -13 -12 -12 -12 -12 -11 -12 -11 -11 -11 -11 -11 -11 -12 -12 -13 -12 -13 -13
-13 -12 -12 -12 -12 -12 -12 -13 -12 -13 -13 -13 -13 -13 -13 -13 -13 -13 -13 -12 -12 -13 -13 -13 -13 -12 -12 -12 -12 -12 -11 -11 -11 -11 -11 -11 -12 -13 -13 -13 -13 -13 -13
-12 -12 -12 -12 -12 -12 -12 -13 -13 -12 -12 -13 -13 -13 -13 -13 -13 -13 -13 -13 -13 -13 -12 -13 -13 -12 -12 -12 -11 -12 -11 -12 -11 -12 -12 -13 -12 -13 -13 -13 -13 -12 -13
-12 -12 -12 -12 -12 -12 -13 -12 -13 -13 -12 -12 -13 -13 -12 -13 -13 -12 -12 -13 -12 -12 -12 -12 -12 -12 -12 -11 -12 -12 -12 -12 -12 -13 -13 -13 -13 -13 -13 -12 -13 -13 -13
-12 -12 -12 -12 -12 -11 -12 -12 -12 -13 -12 -12 -12 -13 -12 -12 -12 -12 -12 -12 -12 -12 -12 -11 -12 -11 -11 -12 -12 -12 -13 -13 -13 -12 -13 -12 -12 -12 -13 -13 -13 -13 -12
-12 -12 -12 -12 -12 -12 -12 -12 -12 -12 -13 -13 -13 -12 -13 -13 -13 -12 -12 -12 -12 -12 -12 -12 -12 -12 -12 -12 -13 -12 -12 -12 -12 -12 -12 -12 -13 -13 -13 -14 -13 -13 -13
-12 -12 -12 -12 -12 -12 -12 -12 -12 -12 -12 -13 -13 -13 -13 -13 -13 -13 -13 -12 -12 -12 -12 -12 -12 -13 -12 -13 -13 -13 -12 -13 -12 -13 -13 -13 -13 -12 -13 -13 -14 -14 -13
-12 -12 -12 -12 -12 -12 -12 -12 -12 -12 -12 -12 -12 -12 -13 -13 -13 -13 -13 -13 -13 -13 -13 -13 -13 -13 -13 -13 -13 -13 -13 -13 -13 -13 -13 -13 -13 -13 -13 -14 -14 -14 -14
-12 -12 -12 -13 -13 -12 -12 -12 -12 -12 -12 -13 -13 -12 -12 -12 -12 -13 -13 -12 -12 -12 -12 -13 -13 -13 -12 -12 -12 -12 -12 -12 -12 -13 -13 -13 -13 -14 -14 -14 -14 -14 -14
-12 -12 -12 -13 -13 -13 -12 -12 -12 -12 -12 -12 -12 -12 -12 -12 -12 -12 -12 -12 -12 -12 -12 -12 -12 -12 -13 -12 -13 -13 -13 -13 -13 -13 -14 -14 -14 -14 -14 -14 -14 -13 -13
-12 -12 -12 -13 -13 -13 -13 -13 -12 -12 -12 -12 -12 -12 -12 -12 -12 -12 -13 -13 -13 -13 -13 -13 -13 -13 -13 -13 -13 -13 -14 -14 -14 -14 -14 -14 -14 -14 -14 -14 -14 -14 -14
-12 -12 -12 -12 -12 -13 -12 -12 -12 -12 -12 -13 -12 -12 -12 -12 -13 -13 -13 -13 -13 -13 -13 -13 -13 -13 -13 -13 -13 -14 -14 -13 -13 -13 -13 -13 -14 -13 -13 -13 -13 -14 -14
-12 -12 -12 -12 -12 -12 -12 -12 -12 -12 -12 -12 -12 -12 -12 -12 -12 -13 -13 -13 -13 -13 -13 -13 -13 -13 -13 -13 -13 -13 -13 -13 -14 -14 -13 -13 -13 -13 -13 -14 -14 -15 -15
-12 -12 -12 -12 -12 -12 -13 -13 -13 -12 -12 -12 -12 -12 -12 -12 -12 -12 -13 -13 -13 -13 -13 -13 -13 -13 -13 -13 -13 -13 -14 -14 -13 -13 -13 -14 -14 -14 -14 -15 -15 -14 -15
-12 -12 -12 -13 -13 -13 -13 -13 -13 -13 -13 -13 -13 -13 -13 -13 -13 -13 -13 -13 -13 -13 -13 -13 -13 -13 -13 -13 -14 -14 -14 -14 -14 -14 -14 -14 -14 -14 -15 -15 -15 -14 -15
-12 -12 -12 -12 -13 -13 -13 -13 -13 -13 -13 -13 -13 -13 -13 -13 -13 -13 -13 -13 -13 -14 -14 -14 -13 -13 -13 -14 -14 -14 -14 -13 -13 -14 -14 -14 -14 -14 -15 -15 -15 -14 -15
-12 -12 -12 -13 -13 -13 -13 -13 -13 -13 -13 -13 -13 -13 -13 -13 -13 -13 -13 -13 -13 -14 -14 -14 -14 -13 -14 -14 -14 -14 -14 -13 -14 -14 -14 -14 -15 -15 -15 -15 -15 -15 -16
-13 -13 -13 -12 -13 -13 -13 -13 -13 -13 -13 -13 -13 -13 -13 -13 -13 -14 -14 -14 -14 -14 -14 -14 -14 -14 -14 -14 -14 -14 -14 -14 -14 -14 -14 -15 -15 -15 -15 -15 -15 -16 -17
-13 -13 -13 -13 -13 -13 -13 -13 -13 -13 -13 -13 -13 -14 -14 -14 -14 -14 -14 -14 -14 -14 -14 -14 -14 -14 -14 -14 -14 -14 -14 -14 -14 -14 -15 -15 -15 -15 -16 -16 -16 -17 -17
-13 -13 -13 -13 -13 -13 -13 -13 -13 -14 -13 -14 -14 -14 -14 -14 -14 -14 -14 -14 -14 -14 -14 -15 -15 -15 -14 -14 -14 -15 -15 -15 -15 -15 -15 -15 -16 -16 -16 -17 -17 -16 -17
-13 -13 -13 -13 -13 -13 -13 -13 -14 -14 -13 -13 -14 -14 -14 -13 -14 -14 -14 -14 -13 -14 -14 -14 -15 -15 -15 -15 -15 -15 -15 -15 -15 -15 -15 -15 -16 -16 -17 -17 -17 -17 -18
-12 -12 -13 -13 -13 -13 -13 -13 -13 -14 -14 -13 -14 -14 -14 -14 -14 -14 -14 -15 -14 -14 -14 -14 -14 -14 -14 -14 -15 -15 -15 -15 -15 -15 -16 -16 -16 -16 -17 -17 -17 -18 -19
-12 -12 -12 -13 -13 -13 -13 -13 -13 -13 -13 -13 -13 -14 -14 -14 -14 -14 -14 -15 -15 -14 -14 -14 -14 -13 -14 -15 -15 -15 -15 -15 -15 -16 -15 -16 -16 -16 -17 -17 -18 -19 -20
-13 -13 -12 -13 -13 -13 -13 -13 -14 -14 -14 -14 -14 -13 -13 -13 -14 -14 -14 -15 -15 -14 -13 -14 -14 -14 -14 -15 -14 -14 -15 -15 -15 -16 -16 -17 -17 -17 -17 -19 -20 -20 -20
-13 -13 -13 -13 -13 -13 -13 -14 -14 -15 -15 -14 -14 -14 -14 -14 -14 -14 -15 -15 -14 -14 -14 -14 -14 -14 -14 -14 -14 -15 -15 -15 -16 -16 -17 -16 -17 -17 -19 -20 -20 -20 -21
Height
5735 5733 5731 5730 5727 5722 5717 5715 5713 5712 5710 5709 5708 5710 5713 5716 5718 5720 5724 5729 5734 5738 5744 5749 5754 5760 5764 5768 5771 5777 5782 5787 5791 5795 5801 5805 5808 5812 5815 5817 5820 5824 5825
5736 5734 5733 5732 5729 5725 5721 5719 5718 5716 5715 5714 5714 5714 5717 5720 5723 5725 5727 5732 5737 5742 5747 5751 5755 5759 5764 5769 5771 5778 5783 5788 5791 5796 5800 5805 5807 5810 5814 5817 5820 5820 5820
5739 5737 5735 5734 5731 5728 5724 5722 5722 5722 5721 5719 5719 5720 5722 5724 5727 5731 5733 5736 5739 5743 5748 5751 5756 5760 5764 5769 5774 5780 5785 5788 5792 5796 5799 5802 5805 5808 5813 5816 5817 5819 5822
5741 5740 5738 5736 5735 5732 5729 5727 5726 5726 5725 5725 5726 5727 5728 5729 5731 5734 5736 5739 5742 5744 5747 5752 5755 5760 5764 5768 5772 5779 5784 5789 5792 5794 5797 5801 5804 5809 5812 5815 5817 5818 5819
5743 5742 5740 5739 5738 5736 5733 5731 5730 5729 5729 5731 5732 5733 5734 5734 5735 5737 5740 5742 5744 5745 5748 5753 5756 5759 5764 5769 5775 5780 5785 5788 5791 5795 5797 5802 5806 5808 5811 5813 5815 5815 5816
5745 5743 5742 5742 5741 5740 5738 5736 5735 5734 5735 5736 5736 5737 5738 5739 5741 5743 5744 5745 5748 5751 5754 5758 5761 5765 5769 5774 5778 5782 5786 5788 5790 5794 5797 5802 5804 5807 5810 5810 5811 5810 5807
5746 5746 5745 5744 5744 5742 5742 5741 5741 5740 5740 5741 5741 5742 5743 5744 5746 5748 5749 5751 5754 5757 5759 5763 5766 5770 5773 5777 5781 5785 5788 5790 5794 5796 5797 5802 5803 5805 5806 5803 5804 5804 5804
5748 5748 5747 5747 5747 5746 5746 5746 5745 5747 5746 5747 5748 5748 5749 5750 5751 5753 5756 5758 5760 5761 5765 5767 5769 5773 5778 5782 5785 5786 5788 5792 5794 5794 5796 5798 5800 5802 5803 5801 5800 5800 5798
5750 5750 5750 5750 5750 5750 5750 5750 5750 5752 5753 5753 5754 5755 5756 5757 5758 5759 5761 5764 5766 5768 5771 5773 5776 5779 5782 5784 5786 5789 5791 5793 5794 5794 5797 5799 5800 5799 5798 5796 5797 5795 5790
5751 5752 5753 5753 5753 5753 5754 5754 5755 5756 5757 5757 5759 5760 5761 5763 5764 5765 5767 5768 5771 5773 5776 5778 5781 5784 5785 5786 5788 5789 5791 5793 5795 5795 5797 5796 5795 5794 5792 5789 5786 5786 5784
5751 5752 5754 5755 5756 5757 5758 5759 5759 5760 5761 5762 5762 5764 5765 5766 5767 5769 5771 5773 5774 5776 5778 5780 5782 5783 5784 5786 5788 5790 5791 5791 5790 5789 5789 5789 5789 5788 5785 5784 5782 5779 5775
5752 5753 5754 5756 5758 5760 5761 5762 5763 5764 5764 5765 5766 5767 5769 5769 5770 5771 5772 5774 5776 5777 5778 5780 5782 5783 5784 5785 5785 5786 5785 5785 5786 5786 5786 5784 5784 5784 5781 5778 5775 5771 5766
5751 5753 5754 5756 5758 5760 5762 5763 5765 5766 5767 5768 5768 5769 5770 5772 5773 5774 5775 5776 5776 5777 5779 5780 5780 5781 5782 5782 5783 5783 5784 5784 5783 5783 5782 5781 5778 5775 5773 5770 5767 5762 5757
5750 5752 5754 5756 5757 5760 5762 5763 5765 5767 5768 5770 5771 5771 5772 5773 5774 5775 5776 5776 5778 5779 5780 5780 5781 5781 5782 5782 5782 5782 5781 5781 5779 5777 5774 5771 5769 5768 5766 5762 5757 5752 5746
5748 5750 5752 5755 5756 5758 5761 5763 5765 5766 5768 5770 5771 5772 5773 5774 5775 5775 5776 5776 5776 5777 5777 5777 5777 5776 5776 5777 5776 5775 5775 5773 5770 5768 5767 5766 5763 5760 5755 5752 5747 5741 5735
5746 5748 5750 5752 5754 5756 5758 5761 5763 5765 5766 5768 5769 5770 5771 5772 5772 5773 5773 5774 5774 5773 5773 5773 5773 5772 5773 5772 5772 5769 5768 5766 5765 5763 5762 5758 5754 5750 5746 5740 5735 5729 5722
5741 5744 5746 5748 5751 5753 5755 5757 5759 5762 5764 5765 5766 5767 5767 5767 5767 5767 5767 5768 5769 5769 5768 5768 5768 5767 5767 5766 5764 5763 5760 5760 5758 5755 5752 5749 5746 5740 5735 5730 5724 5718 5710
5735 5738 5742 5743 5745 5748 5750 5753 5754 5756 5758 5760 5761 5762 5762 5762 5760 5761 5761 5761 5761 5761 5760 5760 5759 5760 5759 5757 5755 5754 5754 5753 5751 5748 5745 5741 5736 5731 5725 5719 5712 5705 5697
5728 5732 5736 5739 5740 5742 5745 5746 5749 5750 5752 5753 5755 5756 5756 5756 5755 5754 5755 5755 5755 5754 5753 5752 5754 5753 5751 5749 5749 5749 5747 5745 5742 5738 5735 5731 5726 5720 5713 5706 5701 5694 5685
5723 5726 5728 5731 5734 5737 5739 5741 5742 5744 5745 5747 5748 5748 5749 5749 5749 5749 5748 5747 5747 5746 5745 5748 5747 5743 5741 5740 5740 5737 5734 5732 5730 5727 5723 5718 5713 5707 5702 5696 5689 5682 5676
5718 5720 5721 5723 5725 5729 5732 5733 5735 5735 5738 5739 5740 5740 5741 5741 5741 5742 5741 5739 5738 5737 5738 5740 5736 5735 5733 5731 5729 5726 5725 5724 5721 5717 5712 5707 5702 5697 5691 5684 5680 5673 5666
5709 5713 5713 5715 5718 5720 5723 5726 5727 5729 5730 5731 5733 5732 5730 5730 5732 5732 5732 5731 5729 5729 5730 5727 5726 5725 5724 5722 5720 5719 5717 5713 5710 5705 5699 5695 5689 5684 5680 5675 5670 5663 5656
5702 5705 5707 5709 5710 5711 5714 5716 5718 5721 5722 5722 5723 5726 5725 5722 5720 5721 5724 5722 5718 5719 5717 5714 5715 5715 5713 5711 5710 5708 5706 5702 5698 5694 5690 5685 5681 5676 5671 5666 5660 5654 5648
5692 5695 5698 5700 5701 5703 5704 5704 5705 5708 5708 5709 5710 5713 5715 5715 5711 5711 5714 5713 5709 5709 5704 5705 5704 5703 5702 5700 5698 5697 5695 5691 5688 5684 5680 5675 5670 5665 5662 5656 5651 5646 5640
5685 5686 5686 5689 5692 5694 5694 5695 5695 5695 5696 5698 5699 5699 5699 5701 5702 5702 5701 5701 5700 5698 5695 5695 5695 5693 5691 5687 5685 5683 5682 5679 5676 5673 5668 5664 5661 5656 5651 5646 5642 5637 5629
5673 5675 5676 5679 5681 5684 5685 5684 5685 5686 5687 5688 5688 5688 5687 5687 5687 5688 5689 5689 5689 5687 5681 5683 5683 5681 5680 5678 5674 5672 5670 5668 5665 5662 5658 5655 5651 5645 5641 5638 5632 5626 5619
Wind_Speed
7 9 10 11 14 22 19 16 18 18 14 15 17 19 17 16 15 15 20 19 20 21 21 22 23 18 22 19 24 28 20 21 19 24 19 19 18 16 15 14 12 14 13
12 11 11 11 12 19 21 18 18 19 20 15 18 19 19 19 19 18 19 19 20 22 21 19 20 17 17 23 16 24 19 20 20 22 22 19 14 15 16 12 12 10 8
12 11 13 14 14 18 22 19 18 18 20 19 21 20 20 19 19 18 20 19 17 19 17 14 22 21 21 25 28 32 23 23 28 23 19 19 17 15 12 11 11 8 9
10 11 11 14 15 18 18 18 13 15 14 20 18 20 20 20 20 16 13 14 12 13 21 14 15 24 23 21 22 27 28 24 22 21 18 15 14 14 13 10 9 9 11
8 9 10 10 14 13 16 17 16 14 16 15 21 19 22 20 20 17 17 19 15 16 19 15 12 21 23 30 23 24 25 22 21 17 15 13 12 11 9 8 9 11 14
7 9 10 11 12 12 14 17 19 22 23 18 17 17 19 22 20 15 16 19 24 27 26 28 20 23 17 23 22 20 18 18 16 14 12 8 8 7 8 8 9 14 20
8 8 8 9 11 14 15 18 21 20 16 14 13 16 18 19 23 20 12 17 17 20 18 16 18 22 21 19 18 16 15 13 13 12 10 9 7 7 8 9 15 19 25
8 8 8 9 14 17 17 18 21 22 23 24 23 23 22 19 18 17 13 17 15 17 21 22 26 24 20 19 18 17 14 12 10 7 5 4 6 10 14 15 18 23 29
7 6 8 11 14 16 16 15 15 16 19 20 20 20 20 20 19 18 18 20 18 18 18 20 19 18 16 15 14 12 10 7 5 3 5 8 11 13 17 19 22 24 28
9 7 7 9 12 14 15 17 17 16 15 17 17 17 16 16 16 16 15 15 15 16 14 14 15 14 13 12 8 7 5 6 7 8 10 10 12 17 20 20 23 28 32
11 10 8 9 9 9 11 13 13 13 14 15 14 12 12 13 13 13 12 11 12 11 11 10 8 6 5 4 3 6 7 7 9 11 13 14 17 19 22 25 28 33 39
11 11 10 10 10 9 7 6 6 8 10 11 13 13 13 11 9 9 9 9 7 6 5 3 2 1 2 2 4 7 7 9 13 15 15 17 20 23 27 31 33 36 39
10 11 11 10 10 10 8 5 5 7 10 10 10 11 11 11 11 11 10 9 9 7 4 1 3 6 8 8 8 10 13 15 17 18 21 23 26 28 30 33 38 42 46
12 11 12 12 11 10 9 9 9 8 7 7 7 8 8 8 8 7 6 5 3 2 3 4 6 8 10 11 12 15 17 18 20 23 25 26 28 31 36 40 43 46 46
12 14 13 13 13 12 10 9 9 9 8 6 5 4 4 5 4 4 4 4 4 5 6 7 9 10 12 12 13 15 15 19 23 24 24 27 31 35 38 40 45 47 44
14 14 16 16 15 15 14 13 12 11 9 6 4 6 7 9 10 10 10 10 9 9 11 12 13 14 14 15 15 16 21 22 22 24 27 31 35 39 43 44 47 48 52
20 18 17 19 18 17 16 16 16 15 14 13 13 14 16 18 17 15 14 14 13 14 16 16 17 18 18 17 19 21 23 22 25 28 31 34 39 41 45 47 52 57 57
21 20 20 20 19 21 22 21 21 19 19 21 21 19 16 15 19 20 20 18 18 19 20 20 21 20 19 23 25 24 24 26 28 31 35 39 43 45 47 49 51 57 62
23 23 22 18 19 20 19 20 19 20 19 20 19 19 18 19 20 21 23 24 24 23 23 24 20 20 23 25 26 26 28 31 32 34 39 43 45 48 51 52 56 62 56
24 25 28 27 26 23 22 21 21 21 21 21 20 20 21 22 20 20 23 25 27 28 28 23 23 26 28 28 29 31 33 34 36 40 43 43 48 52 54 57 58 57 49
26 26 30 33 32 30 24 22 21 23 21 22 23 23 24 26 27 24 25 30 34 35 31 23 29 30 30 30 31 32 34 35 38 41 48 52 50 53 55 56 54 48 48
28 27 27 32 34 35 34 29 28 29 31 30 26 27 31 33 28 28 28 33 35 33 33 36 36 34 31 30 32 32 30 31 37 43 48 49 51 54 56 49 45 44 47
25 26 27 28 30 32 34 34 34 34 35 33 37 34 33 36 39 33 29 34 38 40 39 31 33 35 35 34 32 32 30 37 44 43 45 46 53 53 40 41 43 44 45
27 27 26 26 28 31 34 37 39 38 37 37 36 34 37 38 41 37 31 32 35 37 28 24 30 38 34 33 33 36 36 38 41 39 46 52 46 36 42 41 40 42 44
31 31 30 30 31 30 29 27 27 30 32 32 29 29 31 33 32 31 31 33 36 34 33 33 35 38 42 43 42 38 41 40 40 43 45 39 37 40 39 37 39 40 43
37 37 37 35 33 32 31 32 31 32 33 30 27 27 28 30 31 32 35 37 38 42 42 36 40 42 44 45 44 38 35 38 41 42 36 38 42 40 36 36 37 40 44
Wind_Direction
17 12 22 29 41 38 41 59 65 61 71 72 96 124 130 129 131 126 146 159 164 166 171 176 179 180 179 194 193 170 177 186 177 199 189 171 163 167 169 168 152 183 186
42 35 44 40 50 47 50 44 67 69 74 68 101 116 126 128 132 133 137 146 155 161 166 177 183 184 209 196 219 194 194 186 193 177 175 175 188 175 151 154 173 194 192
46 52 56 48 54 60 55 59 78 81 79 88 99 108 121 128 130 139 144 152 163 172 173 178 197 208 194 205 195 190 190 187 175 173 178 182 159 131 150 186 188 194 219
50 56 58 53 54 63 58 50 77 79 91 90 112 113 110 113 121 125 130 148 156 184 191 178 177 183 198 189 173 172 170 182 180 157 147 135 139 159 174 182 203 223 243
38 49 53 63 64 59 57 52 59 78 96 97 102 95 93 100 124 127 101 115 121 140 171 138 162 135 151 152 133 147 152 154 154 141 140 147 157 161 181 210 236 257 269
41 60 60 70 66 68 65 66 69 89 101 93 79 86 108 97 112 135 109 118 114 117 116 149 154 151 152 154 155 135 137 138 131 136 138 159 167 194 221 242 278 297 304
49 62 71 70 69 87 82 80 81 83 84 85 86 88 91 99 111 126 112 136 130 133 129 141 137 140 140 138 127 129 132 130 143 148 153 182 194 233 268 310 307 299 287
61 63 76 77 92 96 91 87 85 85 85 86 86 92 98 100 101 108 107 116 123 129 133 141 133 125 131 134 138 138 135 151 153 155 180 228 272 290 293 291 291 285 285
89 83 88 94 99 101 101 95 86 85 89 91 94 94 95 98 99 100 100 101 101 111 119 122 128 133 138 135 135 140 149 167 185 217 266 274 279 283 280 281 274 281 294
119 120 115 110 110 108 103 102 101 97 91 91 91 93 96 100 104 104 107 108 117 123 122 125 130 135 138 141 156 174 202 231 247 255 257 266 275 279 280 290 299 296 297
142 139 144 132 121 111 108 109 109 107 107 105 100 95 95 99 104 108 113 119 126 130 135 141 144 145 149 171 221 256 259 269 279 278 280 286 281 289 296 295 298 303 304
163 154 151 157 158 147 132 112 97 101 102 100 97 96 97 93 84 84 91 106 114 122 125 145 191 199 222 270 280 277 281 273 271 277 285 289 293 290 291 296 299 299 302
167 172 166 160 160 162 157 145 129 121 114 106 95 91 87 89 92 98 103 101 90 86 90 85 280 274 276 279 277 268 266 273 280 286 283 283 287 292 296 297 299 300 300
185 181 178 171 167 168 165 153 144 136 128 116 105 96 83 72 69 70 71 70 79 127 201 235 249 255 259 262 264 267 271 277 279 280 290 297 298 300 302 304 305 305 306
207 199 199 191 189 183 184 177 168 162 151 137 113 77 29 10 354 337 327 310 310 309 297 292 291 287 283 283 281 281 283 278 282 291 294 294 297 300 301 301 305 306 305
224 218 218 211 211 207 205 207 208 205 206 211 248 285 296 305 307 303 294 288 284 286 285 280 280 281 284 285 290 283 273 276 282 289 297 300 300 301 304 304 305 310 314
237 229 227 233 228 229 230 231 235 240 246 254 269 287 297 300 297 290 285 282 282 277 274 275 278 282 288 286 274 271 278 287 298 301 302 302 303 304 312 313 311 313 318
238 236 233 233 239 240 243 245 250 252 258 267 276 283 284 287 289 287 286 284 281 279 279 277 279 289 287 276 280 285 289 294 297 293 298 306 307 309 310 310 316 321 319
234 234 237 238 235 242 246 254 255 260 262 269 273 275 271 277 281 286 289 289 288 286 280 278 289 284 277 281 282 286 291 293 296 299 300 305 311 310 310 315 319 321 320
234 238 238 244 242 243 255 257 263 263 266 270 275 273 264 264 270 283 298 290 287 281 279 290 283 276 277 280 287 291 294 296 301 306 308 311 316 314 312 312 317 318 313
232 243 245 240 242 247 247 253 258 263 266 266 262 262 264 270 276 288 295 295 305 269 277 280 277 279 283 285 286 289 295 301 302 308 312 310 313 314 315 315 308 313 325
243 244 246 245 244 245 250 252 256 261 274 275 260 260 269 274 276 282 287 295 290 302 283 269 266 272 274 277 282 290 297 305 310 304 310 311 314 317 312 304 310 322 321
252 249 248 249 249 251 250 252 258 265 270 272 272 264 267 276 279 285 293 297 289 296 303 278 263 271 275 277 282 288 292 300 308 309 308 311 312 311 303 314 318 317 319
256 258 258 251 250 253 258 265 266 265 269 272 270 267 261 266 268 276 279 289 295 286 280 266 277 275 284 285 284 287 289 301 301 299 306 309 303 300 314 315 313 316 319
259 261 265 264 262 264 262 259 262 266 263 266 274 279 279 274 271 274 280 278 290 288 280 288 289 281 283 277 278 286 289 297 298 308 307 302 298 311 310 310 314 319 326
256 258 256 259 262 260 260 263 264 269 273 274 277 282 289 289 284 281 280 280 282 275 284 270 283 279 280 286 282 293 289 297 309 301 297 295 306 306 306 309 317 324 327